COSMOS 252 DEB, 3557

Orbit data source: Space-Track

COSMOS 252 DEB, 3557 is space debris in LEO originally from a launch on Fri, 01 Nov 1968 UTC launched from the Tyuratam Missile And Space Complex (TTMTR). Debris objects in space refer to the collection of defunct objects orbiting the Earth. Examples of debris include non-operational satellites, rocket bodies, and fragments generated from explosions, collisions, or faulty payload assembly.

Loading next visibility...
Identifier
3557, 1968-097K
Orbit
LEO
Country
Flag of CISCIS
Related business
Manufacturer
Unknown
Mission
Spacecraft
Bus & Motor
Unknown
Mass
Unknown
Launch date (UTC)
1968-11-01 (58 years ago)
Launch vehicle
Unknown
Launch site
Tyuratam Missile And Space Complex (TTMTR)
Object type
Payload
Rocket body
Debris
Shape & HBR
Unknown shape, 0.2 m
Radar Cross Section
Medium (>0.1 m² and <1 m²)

Expand to show TLE details & history
Last TLE update: 19 hours ago

TLE from 19 hours ago
0 COSMOS 252 DEB
1 03557U 68097K   26174.87786925  .00000385  00000-0  18548-3 0  9997
2 03557  62.3165 243.7262 0812653 251.9611  99.1286 13.24379085755094
Epoch: 2026-06-23T21:04Z
TLE epoch observation values (Epoch: 2026-06-23T21:04:07.903Z)
Latitude
-0.00002°
Longitude
15.65014°
Altitude
1,314.452 km
Speed
7.131 km/s
True Right ascension
16h 14m 54s
True Declination
0° 00' 00"
Sunlit
Object was in full shadow at epoch
Visualization orbit readout
Latitude
Unknown
Longitude
Unknown
Altitude
Unknown
Speed
Unknown
Apparent Right ascension
Unknown
Apparent Declination
Unknown
Sunlit
N/A
Visualization observer readout
Local Sidereal Time
03:12:10
Azimuth
Unknown
Elevation
Unknown
Doppler factor
Unknown
Orbital elements
Apogee altitude
1,780.164 km
Perigee altitude
553.847 km
Semi-major axis
7,545.143 km
Eccentricity
0.08127
Inclination
62.3165°
RAAN
243.7262°
Arg. of periapsis
251.9611°
True anomaly
108.13985°
Mean anomaly
99.1286°
Eccentric anomaly
103.65319°
Mean motion
3.31163 °/min
Orbital period
108.71 mins
BSTAR
0.00018548
Loading maneuver chart data...
Computing Atmospheric mass density...

Documentation

Showing up to 5 results
|